Weather reports worldwide

Advertisment
Castellon, Spain (8286): temperature & dewpoint: 11.06.2019 20:00:00 - 17.06.2019 20:00:00 (CEST)Castellon, Spain (8286): wind speed: 11.06.2019 20:00:00 - 17.06.2019 20:00:00 (CEST)Castellon, Spain (8286): wind direction: 11.06.2019 20:00:00 - 17.06.2019 20:00:00 (CEST)Castellon, Spain (8286): reduced air pressure: 11.06.2019 20:00:00 - 17.06.2019 20:00:00 (CEST)Castellon, Spain (8286): visibility: 11.06.2019 20:00:00 - 17.06.2019 20:00:00 (CEST)Castellon, Spain (8286): precipitation: 11.06.2019 20:00:00 - 17.06.2019 20:00:00 (CEST)
Date & Time tt [°C] td [°C] ff [km/h] ff [kn] dd ppp [hPa] vv [km] rr [mm]
17.06.2019 20:00:00 - - - - - - - -
17.06.2019 19:00:00 25,8 14,3 9 5 SSE 1015,2 20 0,0
17.06.2019 18:00:00 26,6 14,4 11 6 SSE 1015,5 20 0,0
17.06.2019 17:00:00 26,9 14,0 13 7 SE 1015,6 20 -
17.06.2019 16:00:00 27,2 14,6 11 6 SSE 1016,1 20 0,0
17.06.2019 15:00:00 25,4 15,7 15 8 ESE 1016,2 20 0,0
17.06.2019 14:00:00 25,5 16,9 13 7 ESE 1016,5 20 -
17.06.2019 13:00:00 25,9 16,7 11 6 SE 1016,9 20 0,0
17.06.2019 12:00:00 25,5 15,8 11 6 ESE 1016,8 20 0,0
17.06.2019 11:00:00 25,9 15,3 9 5 ESE 1016,6 20 -
17.06.2019 10:00:00 24,0 14,4 4 2 NE 1016,7 20 0,0
17.06.2019 09:00:00 21,6 15,0 4 2 N 1016,8 19 0,0
17.06.2019 08:00:00 17,9 14,8 4 2 NW 1016,9 13 -
17.06.2019 07:00:00 16,8 14,1 4 2 NW 1016,7 12 0,0
17.06.2019 06:00:00 17,4 15,2 4 2 S 1016,6 17 0,0
17.06.2019 05:00:00 17,8 15,8 4 2 SSW 1016,8 17 -
17.06.2019 04:00:00 17,9 15,5 4 2 NW 1017,1 18 0,0
17.06.2019 03:00:00 18,6 15,8 2 1 NW 1017,3 17 0,0
17.06.2019 02:00:00 18,7 16,1 5 3 SW 1017,9 18 -
17.06.2019 01:00:00 19,0 16,2 4 2 SW 1018,3 20 0,0
17.06.2019 00:00:00 19,6 16,2 4 2 NW 1018,5 20 0,0
16.06.2019 23:00:00 19,8 16,4 4 2 SW 1018,8 20 -
16.06.2019 22:00:00 20,2 16,0 5 3 S 1018,6 20 0,0
16.06.2019 21:00:00 21,1 15,6 9 5 S 1018,2 20 0,0
16.06.2019 20:00:00 22,0 15,4 5 3 SSE 1017,9 20 -
16.06.2019 19:00:00 23,1 14,9 9 5 SSE 1018,4 20 0,0
16.06.2019 18:00:00 23,6 14,6 9 5 S 1018,7 20 0,0
16.06.2019 17:00:00 23,8 14,8 9 5 ESE 1018,7 20 -
16.06.2019 16:00:00 23,6 14,3 15 8 E 1019,6 20 0,0
16.06.2019 15:00:00 24,2 14,0 9 5 SE 1020,2 20 0,0
16.06.2019 14:00:00 24,8 13,0 11 6 ESE 1020,6 20 -
16.06.2019 13:00:00 25,9 12,0 13 7 SE 1020,9 20 0,0
16.06.2019 12:00:00 25,4 12,6 9 5 ESE 1021,1 20 0,0
16.06.2019 11:00:00 24,6 12,2 8 4 ESE 1021,1 20 -
16.06.2019 10:00:00 23,0 14,3 5 3 ENE 1021,1 20 0,0
16.06.2019 09:00:00 20,7 14,3 4 2 WNW 1020,9 20 0,0
16.06.2019 08:00:00 18,2 12,9 9 5 WNW 1020,6 20 -
16.06.2019 07:00:00 17,1 12,8 8 4 WNW 1020,3 20 0,0
16.06.2019 06:00:00 17,4 13,3 4 2 WNW 1020,2 19 0,0
16.06.2019 05:00:00 18,7 14,0 5 3 WNW 1020,1 20 -
16.06.2019 04:00:00 19,7 14,3 4 2 NNW 1020,3 20 0,0
16.06.2019 03:00:00 20,0 13,0 5 3 N 1020,4 20 0,0
16.06.2019 02:00:00 20,2 14,3 8 4 NE 1020,3 20 -
16.06.2019 01:00:00 18,8 9,6 2 1 N 1020,1 20 0,0
16.06.2019 00:00:00 20,1 9,0 5 3 W 1019,5 20 0,0
15.06.2019 23:00:00 21,0 8,6 4 2 WNW 1018,9 20 -
15.06.2019 22:00:00 21,8 8,0 4 2 S 1017,8 20 0,0
15.06.2019 21:00:00 23,5 8,7 5 3 S 1017,2 20 0,0
15.06.2019 20:00:00 24,6 8,9 5 3 ESE 1016,6 20 -
15.06.2019 19:00:00 25,3 9,6 9 5 S 1016,3 20 0,0
15.06.2019 18:00:00 24,8 11,0 9 5 E 1016,2 20 0,0
15.06.2019 17:00:00 25,7 11,8 13 7 ESE 1016,2 20 -
15.06.2019 16:00:00 26,1 12,5 13 7 ESE 1016,3 20 0,0
15.06.2019 15:00:00 26,4 12,1 11 6 SE 1016,6 20 0,0
15.06.2019 14:00:00 25,3 12,5 16 9 ESE 1016,8 20 -
15.06.2019 13:00:00 25,7 14,8 15 8 SE 1017,2 20 0,0
15.06.2019 12:00:00 24,5 14,6 13 7 ESE 1017,0 20 0,0
15.06.2019 11:00:00 24,2 16,2 11 6 ESE 1017,0 20 -
15.06.2019 10:00:00 23,6 16,4 9 5 SE 1016,7 20 0,0
15.06.2019 09:00:00 21,9 16,6 8 4 E 1016,0 16 0,0
15.06.2019 08:00:00 19,0 16,4 5 3 NE 1015,3 10 -
15.06.2019 07:00:00 18,1 9,4 2 1 ENE 1014,4 20 0,0
15.06.2019 06:00:00 18,4 9,2 4 2 NW 1013,8 20 0,0
15.06.2019 05:00:00 17,8 11,6 5 3 NNW 1013,3 20 -
15.06.2019 04:00:00 18,0 12,9 5 3 WNW 1013,2 20 0,0
15.06.2019 03:00:00 18,8 15,8 4 2 W 1012,9 17 0,0
15.06.2019 02:00:00 20,0 17,8 4 2 N 1012,8 12 -
15.06.2019 01:00:00 20,6 18,4 5 3 E 1012,7 14 0,0
15.06.2019 00:00:00 21,3 18,3 4 2 E 1012,0 16 0,0
14.06.2019 23:00:00 22,2 16,9 4 2 NE 1011,8 20 -
14.06.2019 22:00:00 22,8 16,8 2 1 SSE 1011,1 19 0,0
14.06.2019 21:00:00 24,7 15,3 4 2 SE 1010,6 20 0,0
14.06.2019 20:00:00 25,9 15,6 5 3 S 1010,2 20 -
14.06.2019 19:00:00 26,7 14,8 9 5 S 1010,0 20 0,0
14.06.2019 18:00:00 26,7 13,8 13 7 SE 1010,3 20 0,0
14.06.2019 17:00:00 27,0 13,4 11 6 SSE 1010,4 20 -
14.06.2019 16:00:00 27,3 13,3 11 6 SSE 1010,6 20 0,0
14.06.2019 15:00:00 26,8 13,5 13 7 SE 1010,7 20 0,0
14.06.2019 14:00:00 27,2 11,6 13 7 ESE 1011,0 20 -
14.06.2019 13:00:00 27,2 11,6 11 6 SE 1010,8 20 0,0
14.06.2019 12:00:00 26,6 12,3 9 5 SSE 1010,8 20 0,0
14.06.2019 11:00:00 25,5 10,9 4 2 NNE 1010,0 20 -
14.06.2019 10:00:00 23,4 10,8 5 3 S 1010,7 20 0,0
14.06.2019 09:00:00 19,7 9,8 8 4 S 1011,1 20 0,0
14.06.2019 08:00:00 18,9 7,3 5 3 WNW 1010,6 20 -
14.06.2019 07:00:00 17,8 8,1 9 5 NNW 1008,7 20 0,0
14.06.2019 06:00:00 18,4 10,0 9 5 W 1010,3 20 0,0
14.06.2019 05:00:00 17,6 7,0 5 3 SW 1010,0 20 -
14.06.2019 04:00:00 18,0 6,2 5 3 WNW 1009,3 20 0,0
14.06.2019 03:00:00 18,2 6,4 8 4 WNW 1009,5 20 0,0
14.06.2019 02:00:00 18,2 5,7 9 5 NW 1010,7 20 -
14.06.2019 01:00:00 18,9 2,7 5 3 NNW 1011,8 20 0,0
14.06.2019 00:00:00 18,8 6,3 5 3 NW 1012,6 20 0,0
13.06.2019 23:00:00 19,6 6,0 5 3 NE 1012,3 20 -
13.06.2019 22:00:00 19,6 9,5 5 3 ENE 1011,9 20 0,0
13.06.2019 21:00:00 20,5 11,4 8 4 E 1011,5 20 0,0
13.06.2019 20:00:00 21,3 13,5 9 5 ENE 1011,4 20 -
13.06.2019 19:00:00 22,1 13,7 13 7 E 1011,2 20 0,0
13.06.2019 18:00:00 22,2 14,8 15 8 E 1011,6 20 0,0
13.06.2019 17:00:00 23,0 14,0 11 6 E 1011,9 20 -
13.06.2019 16:00:00 23,3 14,8 11 6 E 1012,5 20 0,0
13.06.2019 15:00:00 23,1 15,2 15 8 E 1012,9 20 0,0
13.06.2019 14:00:00 21,9 15,5 9 5 E 1013,7 20 -
13.06.2019 13:00:00 22,9 15,0 13 7 E 1013,9 20 0,0
13.06.2019 12:00:00 23,4 14,1 9 5 ESE 1014,1 20 0,0
13.06.2019 11:00:00 21,6 14,0 5 3 NE 1014,6 20 -
13.06.2019 10:00:00 19,9 12,2 4 2 NNW 1014,6 20 0,0
13.06.2019 09:00:00 19,2 8,8 4 2 NNW 1014,4 20 0,0
13.06.2019 08:00:00 18,3 9,1 4 2 W 1014,0 20 -
13.06.2019 07:00:00 17,7 8,3 4 2 NW 1013,8 20 0,0
13.06.2019 06:00:00 17,9 7,9 5 3 WNW 1013,7 20 0,0
13.06.2019 05:00:00 18,0 8,0 8 4 WNW 1013,5 20 -
13.06.2019 04:00:00 18,0 8,0 5 3 NW 1014,1 20 0,0
13.06.2019 03:00:00 17,7 8,3 4 2 NNW 1014,4 20 0,0
13.06.2019 02:00:00 17,5 8,9 8 4 WNW 1014,8 20 -
13.06.2019 01:00:00 17,2 9,6 5 3 NW 1015,2 20 0,0
13.06.2019 00:00:00 17,5 9,9 4 2 NNW 1015,4 20 0,0
12.06.2019 23:00:00 18,1 10,5 2 1 NE 1015,5 20 -
12.06.2019 22:00:00 18,3 10,4 4 2 E 1014,8 20 0,0
12.06.2019 21:00:00 19,1 10,1 8 4 ESE 1014,6 20 0,0
12.06.2019 20:00:00 19,9 9,5 11 6 ESE 1014,4 20 -
12.06.2019 19:00:00 20,4 9,6 11 6 ESE 1014,0 20 0,0
12.06.2019 18:00:00 21,4 8,0 11 6 ESE 1014,5 20 0,0
12.06.2019 17:00:00 21,9 6,5 13 7 ESE 1014,6 20 -
12.06.2019 16:00:00 22,6 8,3 13 7 SE 1014,7 20 0,0
12.06.2019 15:00:00 23,2 9,9 13 7 SE 1015,0 20 0,0
12.06.2019 14:00:00 23,7 8,1 9 5 SE 1015,2 20 -
12.06.2019 13:00:00 22,8 8,1 13 7 SE 1015,7 20 0,0
12.06.2019 12:00:00 22,1 6,3 15 8 SSE 1015,8 20 0,0
12.06.2019 11:00:00 22,3 3,4 9 5 SSE 1015,9 20 -
12.06.2019 10:00:00 19,8 3,0 4 2 NNE 1016,2 20 0,0
12.06.2019 09:00:00 17,1 3,7 8 4 NW 1016,4 20 0,0
12.06.2019 08:00:00 13,1 4,0 9 5 WNW 1016,0 20 -
12.06.2019 07:00:00 11,9 3,6 13 7 WNW 1015,5 20 0,0
12.06.2019 06:00:00 12,1 4,3 9 5 WNW 1014,9 20 0,0
12.06.2019 05:00:00 12,3 4,8 8 4 WNW 1014,5 20 -
12.06.2019 04:00:00 12,4 5,5 8 4 WNW 1014,6 20 0,0
12.06.2019 03:00:00 13,3 6,2 8 4 WNW 1014,9 20 0,0
12.06.2019 02:00:00 13,7 6,5 5 3 WNW 1015,4 20 -
12.06.2019 01:00:00 14,4 6,5 5 3 WNW 1015,5 20 0,0
12.06.2019 00:00:00 16,0 7,0 4 2 NW 1015,3 20 0,0
11.06.2019 23:00:00 17,3 9,5 4 2 E 1015,0 20 -
11.06.2019 22:00:00 18,4 6,9 4 2 E 1014,0 20 0,0
11.06.2019 21:00:00 19,9 6,2 8 4 E 1013,4 20 0,0
11.06.2019 20:00:00 19,8 3,0 11 6 NNE 1013,0 20 -

tt = temperature
td = dewpoint
ff = wind speed
dd = wind direction
ppp = reduced air pressure
vv = visibility
rr = precipitation

Next stations